Hourly Weather Murazhi

Today, 25 September, Saturday

Time Temperature Precipitation Wind Pressure Humidity
00:00 +8°C° 0 mm 3 mps 739 mmHg 95%
01:00 +9°C° 0 mm 3 mps 739 mmHg 94%
02:00 +8°C° 0 mm 4 mps 739 mmHg 93%
03:00 +8°C° 0 mm 4 mps 739 mmHg 93%
04:00 +9°C° 0 mm 3 mps 739 mmHg 92%
05:00 +9°C° 0 mm 3 mps 739 mmHg 91%
06:00 +8°C° 0.6 mm 4 mps 739 mmHg 93%
07:00 +8°C° 0.6 mm 4 mps 738 mmHg 94%
08:00 +8°C° 0 mm 5 mps 738 mmHg 96%
09:00 +9°C° 0.2 mm 5 mps 738 mmHg 95%
10:00 +10°C° 0.2 mm 6 mps 738 mmHg 95%
11:00 +11°C° 0.2 mm 6 mps 738 mmHg 95%
12:00 +13°C° 0.2 mm 6 mps 738 mmHg 90%
13:00 +14°C° 0.2 mm 6 mps 738 mmHg 85%
14:00 +15°C° 0 mm 6 mps 739 mmHg 79%
15:00 +15°C° 0.1 mm 6 mps 739 mmHg 80%
16:00 +14°C° 0.1 mm 6 mps 740 mmHg 80%
17:00 +14°C° 0.1 mm 5 mps 741 mmHg 81%
18:00 +12°C° 0 mm 5 mps 742 mmHg 85%
19:00 +11°C° 0 mm 4 mps 742 mmHg 89%
20:00 +10°C° 0 mm 4 mps 743 mmHg 94%
21:00 +10°C° 0 mm 4 mps 744 mmHg 94%
22:00 +8°C° 0 mm 4 mps 744 mmHg 95%
23:00 +8°C° 0 mm 4 mps 745 mmHg 95%

Tomorrow, 26 September, Sunday

Time Temperature Precipitation Wind Pressure Humidity
00:00 +7°C° 0 mm 4 mps 745 mmHg 96%
01:00 +7°C° 0 mm 4 mps 746 mmHg 96%
02:00 +7°C° 0 mm 4 mps 747 mmHg 96%
03:00 +6°C° 0 mm 4 mps 747 mmHg 95%
04:00 +6°C° 0 mm 4 mps 747 mmHg 95%
05:00 +6°C° 0 mm 4 mps 748 mmHg 94%
06:00 +6°C° 0 mm 4 mps 748 mmHg 93%
07:00 +7°C° 0 mm 4 mps 749 mmHg 91%
08:00 +7°C° 0 mm 4 mps 749 mmHg 90%
09:00 +10°C° 0 mm 4 mps 750 mmHg 82%
10:00 +10°C° 0 mm 5 mps 751 mmHg 74%
11:00 +13°C° 0 mm 5 mps 751 mmHg 67%
12:00 +13°C° 0 mm 5 mps 751 mmHg 64%
13:00 +13°C° 0 mm 5 mps 752 mmHg 61%
14:00 +14°C° 0 mm 5 mps 752 mmHg 59%
15:00 +13°C° 0 mm 4 mps 753 mmHg 62%
16:00 +12°C° 0 mm 3 mps 753 mmHg 66%
17:00 +12°C° 0 mm 3 mps 753 mmHg 70%
18:00 +10°C° 0 mm 2 mps 754 mmHg 75%
19:00 +9°C° 0 mm 2 mps 754 mmHg 80%
20:00 +8°C° 0 mm 1 mps 755 mmHg 85%
21:00 +8°C° 0 mm 1 mps 755 mmHg 88%
22:00 +7°C° 0 mm 1 mps 755 mmHg 90%
23:00 +6°C° 0 mm 2 mps 756 mmHg 92%

Day after tomorrow, 27 September, Monday

Time Temperature Precipitation Wind Pressure Humidity
00:00 +6°C° 0 mm 2 mps 756 mmHg 93%
01:00 +5°C° 0 mm 2 mps 756 mmHg 93%
02:00 +5°C° 0 mm 2 mps 756 mmHg 94%
03:00 +5°C° 0 mm 2 mps 757 mmHg 94%
04:00 +5°C° 0 mm 2 mps 757 mmHg 95%
05:00 +4°C° 0 mm 2 mps 757 mmHg 95%
06:00 +5°C° 0 mm 2 mps 757 mmHg 92%
07:00 +6°C° 0 mm 2 mps 757 mmHg 90%
08:00 +7°C° 0 mm 2 mps 758 mmHg 87%
09:00 +9°C° 0 mm 2 mps 758 mmHg 81%
10:00 +10°C° 0 mm 2 mps 758 mmHg 74%
11:00 +12°C° 0 mm 3 mps 758 mmHg 68%
12:00 +13°C° 0 mm 3 mps 758 mmHg 66%
13:00 +13°C° 0 mm 3 mps 758 mmHg 63%
14:00 +14°C° 0 mm 3 mps 758 mmHg 61%
15:00 +13°C° 0 mm 3 mps 758 mmHg 65%
16:00 +11°C° 0 mm 3 mps 758 mmHg 70%
17:00 +10°C° 0 mm 3 mps 758 mmHg 75%
18:00 +9°C° 0 mm 3 mps 758 mmHg 80%
19:00 +8°C° 0 mm 2 mps 758 mmHg 85%
20:00 +6°C° 0 mm 2 mps 759 mmHg 90%
21:00 +7°C° 0 mm 1 mps 759 mmHg 91%
22:00 +7°C° 0 mm 1 mps 759 mmHg 92%
23:00 +6°C° 0 mm 1 mps 759 mmHg 92%

28 September, Tuesday

Time Temperature Precipitation Wind Pressure Humidity
00:00 +6°C° 0 mm 1 mps 759 mmHg 93%
01:00 +6°C° 0 mm 1 mps 759 mmHg 93%
02:00 +5°C° 0 mm 2 mps 759 mmHg 93%
03:00 +5°C° 0 mm 2 mps 760 mmHg 93%
04:00 +5°C° 0 mm 2 mps 760 mmHg 94%
05:00 +5°C° 0 mm 2 mps 760 mmHg 95%
06:00 +5°C° 0 mm 2 mps 760 mmHg 92%
07:00 +6°C° 0 mm 2 mps 760 mmHg 89%
08:00 +7°C° 0 mm 2 mps 760 mmHg 86%
09:00 +9°C° 0 mm 2 mps 761 mmHg 79%
10:00 +10°C° 0 mm 2 mps 761 mmHg 73%
11:00 +13°C° 0 mm 2 mps 761 mmHg 66%
12:00 +14°C° 0 mm 2 mps 761 mmHg 64%
13:00 +14°C° 0 mm 2 mps 761 mmHg 61%
14:00 +15°C° 0 mm 2 mps 761 mmHg 58%
15:00 +14°C° 0 mm 2 mps 761 mmHg 60%
16:00 +13°C° 0 mm 2 mps 761 mmHg 63%
17:00 +12°C° 0 mm 2 mps 761 mmHg 65%
18:00 +12°C° 0 mm 2 mps 761 mmHg 66%
19:00 +12°C° 0 mm 2 mps 761 mmHg 68%
20:00 +11°C° 0 mm 1 mps 762 mmHg 69%
21:00 +10°C° 0 mm 2 mps 762 mmHg 72%
22:00 +10°C° 0 mm 2 mps 762 mmHg 74%
23:00 +9°C° 0 mm 2 mps 762 mmHg 76%

29 September, Wednesday

Time Temperature Precipitation Wind Pressure Humidity
00:00 +9°C° 0 mm 2 mps 762 mmHg 78%
01:00 +9°C° 0 mm 2 mps 763 mmHg 80%
02:00 +9°C° 0 mm 2 mps 763 mmHg 82%
03:00 +9°C° 0 mm 2 mps 763 mmHg 82%
04:00 +8°C° 0 mm 2 mps 763 mmHg 83%
05:00 +8°C° 0 mm 2 mps 763 mmHg 83%
06:00 +8°C° 0 mm 2 mps 763 mmHg 82%
07:00 +8°C° 0 mm 2 mps 763 mmHg 81%
08:00 +8°C° 0 mm 3 mps 763 mmHg 80%
09:00 +9°C° 0 mm 3 mps 763 mmHg 73%
10:00 +10°C° 0 mm 3 mps 763 mmHg 67%
11:00 +12°C° 0 mm 3 mps 763 mmHg 60%
12:00 +12°C° 0 mm 3 mps 763 mmHg 59%
13:00 +12°C° 0 mm 3 mps 763 mmHg 57%
14:00 +12°C° 0 mm 3 mps 763 mmHg 56%
15:00 +11°C° 0 mm 3 mps 763 mmHg 59%
16:00 +12°C° 0 mm 2 mps 762 mmHg 63%
17:00 +10°C° 0 mm 2 mps 762 mmHg 66%
18:00 +9°C° 0 mm 2 mps 762 mmHg 70%
19:00 +8°C° 0 mm 2 mps 762 mmHg 75%
20:00 +6°C° 0 mm 2 mps 762 mmHg 79%
21:00 +6°C° 0 mm 2 mps 762 mmHg 81%
22:00 +5°C° 0 mm 2 mps 763 mmHg 83%
23:00 +5°C° 0 mm 2 mps 763 mmHg 84%

30 September, Thursday

Time Temperature Precipitation Wind Pressure Humidity
00:00 +4°C° 0 mm 2 mps 763 mmHg 86%
01:00 +4°C° 0 mm 2 mps 763 mmHg 88%
02:00 +4°C° 0 mm 2 mps 762 mmHg 90%
03:00 +4°C° 0 mm 2 mps 762 mmHg 91%
04:00 +3°C° 0 mm 2 mps 762 mmHg 92%
05:00 +3°C° 0 mm 2 mps 762 mmHg 93%
06:00 +3°C° 0 mm 3 mps 762 mmHg 88%
07:00 +4°C° 0 mm 3 mps 762 mmHg 84%
08:00 +5°C° 0 mm 3 mps 762 mmHg 80%
09:00 +7°C° 0 mm 3 mps 762 mmHg 73%
10:00 +8°C° 0 mm 4 mps 762 mmHg 66%
11:00 +11°C° 0 mm 4 mps 761 mmHg 59%
12:00 +11°C° 0 mm 4 mps 761 mmHg 58%
13:00 +12°C° 0 mm 4 mps 761 mmHg 57%
14:00 +12°C° 0 mm 4 mps 761 mmHg 55%
15:00 +12°C° 0 mm 3 mps 760 mmHg 60%
16:00 +11°C° 0 mm 3 mps 760 mmHg 65%
17:00 +10°C° 0 mm 2 mps 760 mmHg 70%
18:00 +9°C° 0 mm 2 mps 760 mmHg 75%
19:00 +8°C° 0 mm 2 mps 760 mmHg 81%
20:00 +6°C° 0 mm 2 mps 760 mmHg 86%
21:00 +6°C° 0 mm 2 mps 760 mmHg 87%
22:00 +5°C° 0 mm 2 mps 760 mmHg 89%
23:00 +5°C° 0 mm 2 mps 760 mmHg 90%
Show more

We Need Your Consent

Meteoprog and our Service Providers may store and access personal data such as cookies, device identifiers or other similar technologies on your device and process such data to personalise content and ads, as well as provide social media features and to analyse the traffic.

  • Store and/or access information on your device

    Cookies, device identifiers or other information can be stored or accessed on your device for the purposes indicated above.

  • Personalised ads and content, ad and content measurement, audience insights, and products development

    Ads and content can be personalised based on a profile. More data can be added to better personalise ads and content. Ad and content performance can be measured. Insights about the audience who saw the ads and content can be derived. Such data can be used to develop or improve user’s experience, systems and software.

By clicking ‘I Agree’ you will allow the use of indicated cookies, device identifiers, web beacons or other similar technologies. Your settings can be changed in the browser on your device.

For certain purposes, legitimate interests may be relied on, rather than consent. You can read more about this in our Privacy and Cookie Policy.